sat.trackr.live / text

‹ back to catalog

STARLINK-5956

NORAD 55994 · 2023-042J

PAYLOAD ACTIVE UNKNOWN

§ Identity

Operator
Country
US
Launch date
2023-03-24
Launch site
AFETR
Launch vehicle
Mass (kg)
RCS (m²)

Purposes: comms

External: N2YO · Heavens-Above · Gunter

§ Orbital elements

Epoch: 2026-09-19T17:20:59.843040Z

Period
94.27 min
Inclination
43.0075°
Eccentricity
0.0003181
Mean motion
15.27577134 rev/d
Perigee alt
480.9 km
Apogee alt
485.2 km
Semi-major
6,861.2 km
B*
1.9273e-5
RAAN
43.8681°
Arg perigee
265.7880°
Mean anomaly
94.2608°
Rev number
19,254

§ Raw data

STARLINK-59561 55994U 23042J   26262.72291485  .00000267  00000+0  19273-4 0  99992 55994  43.0075  43.8681 0003181 265.7880  94.2608 15.27577134192544

JSON: /api/v1/satellites/55994 · /tle

For live sub-satellite position, see the globe view (requires WebGL).

§ Visibility from observer

Set your observer location to see the next 7 days of passes ≥ 10°. The values pass through the URL so the page stays shareable.

No JS? Fill the form by hand. The geolocation button needs JavaScript.